Book an open day

Please send us your information and we will contact you as soon as possible to arrange an appointment for a trial flight and explain your choices of the training program.

    

Student's Login

Local Time

LGIR WEATHER

[source: ADDS]
METAR
LGIR 221350Z 33010KT CAVOK 30/25 Q1011 NOSIG =
TAF
TAF LGIR 221100Z 2212/2312 32014KT 9999 FEW025 =

Czech sport aircraft

Cretan Eagle Aviation Ltd. is proud to be appointed as an authorized Czech Sport Aircraft Promoter for Greece
and Cyprus. Please click on the link or give us a call for any additional information on Czech Sport Aircraft.

 

 

On-line PPL QUIZ

Student members can join our free on-line database to practice on PPL quizzes and get ready for the real
exams. Becoming a member and getting access to our system is FREE for all of our students.

 

Paypal Verified

Payments for any Course can be made by Bank Transfer, Cash and PayPal secure payment.

 

Go to top